Regional Weather Roundup
Issued by NWS

Home | Current Version | Previous Version | Text Only | Print | Product List | Glossary On
Versions: 1 2 3 4 5 6 7 8 9 10 11 12 13 14 15 16 17 18 19 20 21 22 23 24 25 26 27 28 29 30 31 32 33 34 35 36 37 38 39 40 41 42 43 44 45 46 47 48 49 50
000
ASUS44 KLIX 011210
RWRLA
LOUISIANA WEATHER ROUNDUP
NATIONAL WEATHER SERVICE NEW ORLEANS LA
600 AM CST SUN MAR 01 2015

NOTE: "FAIR" INDICATES FEW OR NO CLOUDS BELOW 12,000 FEET WITH NO
      SIGNIFICANT WEATHER AND/OR OBSTRUCTIONS TO VISIBILITY.
      SKY/WX - SKY CONDITION AND SIGNIFICANT WEATHER.
      TMP - AIR TEMPERATURE.    DP   - DEWPOINT TEMPERATURE.
      RH  - RELATIVE HUMIDITY.  PRES - PRESSURE.
      HX  - HEAT INDEX.         WCI  - WIND CHILL INDEX.

*  THESE STATIONS ARE NOT NWS OR FAA STATIONS AND ARE NOT UNDER
   NWS QUALITY CONTROL.

LAZ040-048-061>063-065-066-069-011300-
SOUTHEAST LOUISIANA

CITY           SKY/WX    TMP DP  RH WIND       PRES   REMARKS
N.O. AUDUBON     N/A     58  58 100 MISG        N/A
6HR MIN TEMP:  56; 6HR MAX TEMP:  58;

N.O. INTL ARPT DRZL/FOG  57  55  93 E9        30.29S VSB 1/4
6HR MIN TEMP:  57; 6HR MAX TEMP:  58; 6HR PCP: TRACE;

N.O. LAKEFRONT FOG       56  53  90 E14       30.31R VSB 3/4
6HR MIN TEMP:  56; 6HR MAX TEMP:  58;

SLIDELL        CLOUDY    53  53 100 E5        30.31S FOG
6HR MIN TEMP:  53; 6HR MAX TEMP:  57;

BATON ROUGE    CLOUDY    55  55 100 E8        30.29R FOG
6HR MIN TEMP:  53; 6HR MAX TEMP:  56;

BOOTHVILLE     CLOUDY    58  57  97 E5        30.31R
6HR MIN TEMP:  57; 6HR MAX TEMP:  61;

BELLE CHASSE   CLOUDY    59  56  89 E9        30.29S FOG
6HR MIN TEMP:  58; 6HR MAX TEMP:  59;

BOGALUSA*        N/A     57  53  84 SE6       30.34R
6HR MIN TEMP:  56; 6HR MAX TEMP:  58;

GALLIANO*      CLOUDY    53  53  99 NE3       30.28S FOG
6HR MIN TEMP:  53; 6HR MAX TEMP:  58;

NEW ROADS*     CLOUDY    56  55  96 E9        30.27S FOG
6HR MIN TEMP:  55; 6HR MAX TEMP:  56;

GONZALES*      CLOUDY    56  56  99 E3        30.29R FOG
6HR MIN TEMP:  55; 6HR MAX TEMP:  57;

HAMMOND*       CLOUDY    57  54  88 E8        30.31S FOG
HOUMA*         CLOUDY    61  59  94 E9        30.28R
PORT FOURCHON* CLOUDY    61  61 100 E10       30.30F

$$

LAZ041-044-053-054-011300-
SOUTHWEST LOUISIANA

CITY           SKY/WX    TMP DP  RH WIND       PRES   REMARKS
LAKE CHARLES   RAIN      58  56  93 SE12      30.22R FOG
6HR MIN TEMP:  56; 6HR MAX TEMP:  58; 6HR PCP:  0.07;

LAFAYETTE      CLOUDY    59  57  93 E7        30.24R
6HR MIN TEMP:  56; 6HR MAX TEMP:  59;

PATTERSON      CLOUDY    61  57  88 E9        30.26F
6HR MIN TEMP:  57; 6HR MAX TEMP:  61;

SALT POINT       N/A     61  60  97 VRB6      30.23F
6HR MIN TEMP:  57; 6HR MAX TEMP:  61;

NEW IBERIA     CLOUDY    59  57  93 E13       30.24S
6HR MIN TEMP:  56; 6HR MAX TEMP:  59; 6HR PCP: TRACE;

CHENAULT AIRPK RAIN      55  55 100 E5        30.23

$$

LAZ027-028-011300-
CENTRAL LOUISIANA

CITY           SKY/WX    TMP DP  RH WIND       PRES   REMARKS
FORT POLK      CLOUDY    53  52  95 E3        30.24R
6HR MIN TEMP:  53; 6HR MAX TEMP:  55; 6HR PCP: TRACE;

ALEXANDRIA INT HVY RAIN  51  48  89 NE5       30.25R FOG
6HR MIN TEMP:  50; 6HR MAX TEMP:  53; 6HR PCP:  0.04;

ALEXANDRIA     CLOUDY    51  43  74 NE3       30.26S
6HR MIN TEMP:  49; 6HR MAX TEMP:  51;


$$

LAZ001-002-011300-
NORTHWEST LOUISIANA

CITY           SKY/WX    TMP DP  RH WIND       PRES   REMARKS
SHREVEPORT     RAIN      40  38  93 N9        30.28R FOG     WCI  34
6HR MIN TEMP:  40; 6HR MAX TEMP:  46; 6HR PCP:  0.13;

BARKSDALE AFB  LGT RAIN  39  39 100 VRB2      30.29R FOG
                                      6HR PCP:  0.07;

DTN SHREVEPORT HVY RAIN  39  36  89 NE7       30.29S FOG     WCI  34
6HR MIN TEMP:  39; 6HR MAX TEMP:  45; 6HR PCP:  0.07;


$$

LAZ014-016-011300-
NORTHEAST LOUISIANA

CITY           SKY/WX    TMP DP  RH WIND       PRES   REMARKS
MONROE         CLOUDY    42  39  89 NE8       30.32R
6HR MIN TEMP:  42; 6HR MAX TEMP:  44; 6HR PCP: TRACE;

TALLULAH       CLOUDY    49  43  80 CALM      30.31R
6HR MIN TEMP:  40; 6HR MAX TEMP:  49;


$$



USA.gov is the U.S. government's official web portal to all federal, state and local government web resources and services.